sat.trackr.live / text

‹ back to catalog

STARLINK-5961

NORAD 56914 · 2023-083AQ

PAYLOAD ACTIVE UNKNOWN

§ Identity

Operator
Country
US
Launch date
2023-06-12
Launch site
AFETR
Launch vehicle
Mass (kg)
RCS (m²)

Purposes: comms

External: N2YO · Heavens-Above · Gunter

§ Orbital elements

Epoch: 2026-05-25T00:02:14.345952Z

Period
94.27 min
Inclination
43.0045°
Eccentricity
0.0001282
Mean motion
15.27574663 rev/d
Perigee alt
482.2 km
Apogee alt
483.9 km
Semi-major
6,861.2 km
B*
3.9334e-5
RAAN
359.3132°
Arg perigee
255.3164°
Mean anomaly
104.7546°
Rev number
16,347

§ Raw data

STARLINK-59611 56914U 23083AQ  26145.00155493  .00000820  00000+0  39334-4 0  99912 56914  43.0045 359.3132 0001282 255.3164 104.7546 15.27574663163472

JSON: /api/v1/satellites/56914 · /tle

For live sub-satellite position, see the globe view (requires WebGL).

§ Visibility from observer

Set your observer location to see the next 7 days of passes ≥ 10°. The values pass through the URL so the page stays shareable.

No JS? Fill the form by hand. The geolocation button needs JavaScript.